This is the latest recevied weather packets stored in our database for station/object KG4AGD. If no packets are shown the sender has not sent any weather packets the latest 10 day(s).
| Time | Temp. | Humidity | Pressure | Rain* | Wind** | Luminosity | Snow |
|---|---|---|---|---|---|---|---|
| 1777657436 | 12.78° C | 76% | 1016.5 hPa | 1.27 mm | - | - | - |
| 1777657133 | 12.78° C | 77% | 1016.5 hPa | 1.27 mm | - | - | - |
| 1777656831 | 12.78° C | 77% | 1016.5 hPa | 1.27 mm | - | - | - |
| 1777656529 | 13.33° C | 80% | 1016.9 hPa | 1.27 mm | - | - | - |
| 1777656227 | 13.33° C | 79% | 1016.9 hPa | 1.27 mm | - | - | - |
| 1777655924 | 12.78° C | 80% | 1016.9 hPa | 1.27 mm | - | - | - |
| 1777655622 | 12.78° C | 81% | 1016.9 hPa | 1.27 mm | - | - | - |
| 1777655320 | 12.22° C | 84% | 1016.9 hPa | 1.27 mm | - | - | - |
| 1777655018 | 12.22° C | 80% | 1017.6 hPa | 1.27 mm | - | - | - |
| 1777654716 | 12.22° C | 81% | 1017.2 hPa | 1.27 mm | - | - | - |
| 1777654414 | 12.78° C | 81% | 1017.2 hPa | 1.27 mm | - | - | - |
| 1777654111 | 12.78° C | 78% | 1017.2 hPa | 1.27 mm | - | - | - |
| 1777653809 | 13.33° C | 76% | 1016.9 hPa | 1.27 mm | - | - | - |
| 1777653507 | 13.33° C | 72% | 1017.2 hPa | 1.27 mm | - | - | - |
| 1777653205 | 13.89° C | 71% | 1017.2 hPa | 1.27 mm | - | - | - |
| 1777652903 | 13.33° C | 71% | 1016.9 hPa | 1.27 mm | - | - | - |
| 1777652600 | 13.33° C | 70% | 1016.9 hPa | 1.27 mm | - | - | - |
| 1777652298 | 13.33° C | 69% | 1016.9 hPa | 1.27 mm | - | - | - |
| 1777651996 | 14.44° C | 67% | 1016.9 hPa | 1.27 mm | - | - | - |
| 1777651694 | 14.44° C | 70% | 1016.9 hPa | 1.27 mm | - | - | - |
| 1777651392 | 14.44° C | 67% | 1016.9 hPa | 1.27 mm | - | - | - |
| 1777651090 | 14.44° C | 73% | 1016.9 hPa | 1.27 mm | - | - | - |
| 1777650788 | 14.44° C | 69% | 1017.2 hPa | 1.27 mm | - | - | - |
| 1777650485 | 14.44° C | 71% | 1017.2 hPa | 1.27 mm | - | - | - |
| 1777650183 | 13.33° C | 74% | 1017.6 hPa | 1.27 mm | - | - | - |
* Rain since midnight (hover to see other rain measurements)
** Current wind speed in m/s (hover to see current wind gust speed)